Yaogan 43-01-04

operational
NORAD ID: 60461 Int'l Des: 2024-148 Owner: ZZB Country: CN Constellation: yaogan
LEOCIRCULAR

Über Yaogan 43-01-04

Beschreibung wird geladen...

Live-Position

3D-Globus wird geladen...

Nächste Überflüge

Höhenverlauf

Altitude vs Time

uPlot chart will show altitude changes over time

Zweizeiliger Elementsatz

1 60461U 24148D 26071.17903858 .00009292 00000-0 32840-3 0 9995
2 60461 35.0016 44.3145 0002121 346.8413 13.2248 15.28425750 87420
Epoch: 12. März 2026 • Age: 28 hours

Aktueller Status

Höhe 480.9 km
Geschwindigkeit 7.63 km/s
Subsatellitenpunkt 34.81°N, 114.51°W
Startdatum 16. Aug. 2024
Alter 1.5 years
Typ military

Technische Details

Klassifizierung Payload
Masse 300.00 kg
Trockenmasse 300.00 kg
Gesamtmasse 300.00 kg
Länge 2.50 m
Durchmesser 2.50 m
Spannweite 5.00 m
Form Box + 2 Pan
Hersteller SAST
Phasenstatus In Orbit
Besitzer/Staat ZZB/CN

Große Konstellationen

Loading constellations...